SV4RJB-13 Weather Reports


Display with metric or nautical units.
time (UTC)temp
F
wind
direction
speed
MPH
gust
MPH
rain 1hr
in
rain 24hr
in
rain mn
in
humidity
%
barometer
mb
20260504120138 68 0.0 0.0 0.00 0.00 0.00 31 1007.4
20260504081912 70 0.0 0.0 0.00 0.00 0.00 35 1009.1
20260504045912 55 0.0 0.0 0.00 0.00 0.00 57 1009.4
20260504044912 52 0.0 0.0 0.00 0.00 0.00 62 1009.2
20260504042913 48 0.0 0.0 0.00 0.00 0.00 73 1009.2
20260504041913 45 0.0 0.0 0.00 0.00 0.00 80 1009.2
20260504040912 44 0.0 0.0 0.00 0.00 0.00 81 1009.2
20260504035913 43 0.0 0.0 0.00 0.00 0.00 82 1009.1
20260504034913 43 0.0 0.0 0.00 0.00 0.00 82 1009.0
20260504033912 44 0.0 0.0 0.00 0.00 0.00 79 1008.8
20260504032912 44 0.0 0.0 0.00 0.00 0.00 78 1008.8
20260504031911 46 0.0 0.0 0.00 0.00 0.00 76 1008.7
20260504025913 42 0.0 0.0 0.00 0.00 0.00 81 1008.7
20260504024913 45 0.0 0.0 0.00 0.00 0.00 78 1008.6
20260504023913 44 0.0 0.0 0.00 0.00 0.00 78 1008.5
20260504022913 44 0.0 0.0 0.00 0.00 0.00 81 1008.5
20260504021913 43 0.0 0.0 0.00 0.00 0.00 83 1008.5
20260504020913 44 0.0 0.0 0.00 0.00 0.00 81 1008.4
20260504015913 45 0.0 0.0 0.00 0.00 0.00 78 1008.4
20260504014914 44 0.0 0.0 0.00 0.00 0.00 80 1008.4
20260504013913 46 0.0 0.0 0.00 0.00 0.00 76 1008.4
20260504012913 44 0.0 0.0 0.00 0.00 0.00 80 1008.2
20260504011912 45 0.0 0.0 0.00 0.00 0.00 79 1008.2
20260504010912 44 0.0 0.0 0.00 0.00 0.00 79 1008.1
20260504005912 44 0.0 0.0 0.00 0.00 0.00 80 1007.9
20260504004913 46 0.0 0.0 0.00 0.00 0.00 77 1007.9
20260504003912 47 0.0 0.0 0.00 0.00 0.00 76 1007.9
20260504002913 48 0.0 0.0 0.00 0.00 0.00 71 1007.9
20260504001913 47 0.0 0.0 0.00 0.00 0.00 74 1008.0
20260504000913 46 0.0 0.0 0.00 0.00 0.00 75 1007.9
20260503235913 46 0.0 0.0 0.00 0.00 0.00 77 1007.9
20260503234914 45 0.0 0.0 0.00 0.00 0.00 79 1007.8
20260503233913 46 0.0 0.0 0.00 0.00 0.00 77 1008.0
20260503232913 46 0.0 0.0 0.00 0.00 0.00 76 1008.1
20260503231913 46 0.0 0.0 0.00 0.00 0.00 75 1008.2
20260503230912 46 0.0 0.0 0.00 0.00 0.00 76 1008.2
20260503224912 46 0.0 0.0 0.00 0.00 0.00 76 1008.1
20260503222913 48 0.0 0.0 0.00 0.00 0.00 74 1008.1
20260503221913 47 0.0 0.0 0.00 0.00 0.00 77 1008.1
20260503220912 47 0.0 0.0 0.00 0.00 0.00 78 1008.2
20260503214912 48 0.0 0.0 0.00 0.00 0.00 76 1008.2
20260503212912 49 0.0 0.0 0.00 0.00 0.00 72 1008.1
20260503211912 50 0.0 0.0 0.00 0.00 0.00 72 1008.1
20260503210913 50 0.0 0.0 0.00 0.00 0.00 73 1008.2
20260503205912 48 0.0 0.0 0.00 0.00 0.00 76 1008.2
20260503204912 48 0.0 0.0 0.00 0.00 0.00 75 1008.2
20260503202913 49 0.0 0.0 0.00 0.00 0.00 75 1008.3
20260503201913 49 0.0 0.0 0.00 0.00 0.00 76 1008.3
20260503200914 49 0.0 0.0 0.00 0.00 0.00 75 1008.3
20260503195913 49 0.0 0.0 0.00 0.00 0.00 75 1008.4
20260503193913 51 0.0 0.0 0.00 0.00 0.00 69 1008.3
20260503192913 53 0.0 0.0 0.00 0.00 0.00 66 1008.3
20260503191913 53 0.0 0.0 0.00 0.00 0.00 66 1008.3
20260503190913 52 0.0 0.0 0.00 0.00 0.00 68 1008.2
20260503185914 51 0.0 0.0 0.00 0.00 0.00 71 1008.0
20260503184913 51 0.0 0.0 0.00 0.00 0.00 71 1008.0
20260503183912 50 0.0 0.0 0.00 0.00 0.00 72 1007.9
20260503181912 51 0.0 0.0 0.00 0.00 0.00 69 1007.7
20260503175913 53 0.0 0.0 0.00 0.00 0.00 65 1007.6
20260503174912 54 0.0 0.0 0.00 0.00 0.00 60 1007.6
20260503173912 55 0.0 0.0 0.00 0.00 0.00 57 1007.6
20260503172912 56 0.0 0.0 0.00 0.00 0.00 53 1007.5
20260503171913 56 0.0 0.0 0.00 0.00 0.00 51 1007.4
20260503170913 56 0.0 0.0 0.00 0.00 0.00 51 1007.3
20260503150913 56 0.0 0.0 0.00 0.00 0.00 49 1007.3
20260503130912 56 0.0 0.0 0.00 0.00 0.00 51 1008.3